Location: Austin
(30.3000°N, 97.7500°W)
Time: 06:15:39
(UTC-06:00)

CZ-4C R/B - Pass Details

Date: 03 March 2026
Orbit: 481 x 1497 km, 63.4° (Epoch: 6 March)

Event Time Altitude Azimuth Distance (km) Brightness Sun altitude
Rises 20:57:17 0° 344° (NNW) 3,863 6.0 -32.1°
Reaches altitude 10° 21:00:14 10° 356° (N) 3,062 5.2 -32.8°
Enters shadow 21:03:21 22° 18° (NNE) 2,446 4.5 -33.4°
